Location: Biecz
(49.7321°N, 21.2507°E)
Time: 00:57:31
(UTC+02:00)

ISS - Visible Passes

Search period start: 21 September 2018 00:00
Search period end: 01 October 2018 00:00
Orbit: 403 x 408 km, 51.6° (Epoch: 21 September)

Date Brightness Start Highest point End Pass type
(mag) Time Alt. Az. Time Alt. Az. Time Alt. Az.
22 Sep -1.8 20:27:37 10° SSW 20:28:51 19° SSW 20:28:51 19° SSW visible
23 Sep -2.3 19:36:24 10° S 19:38:53 20° SE 19:39:37 19° ESE visible
23 Sep -1.0 21:11:45 10° WSW 21:12:20 14° WSW 21:12:20 14° WSW visible
24 Sep -3.6 20:19:58 10° SW 20:22:54 53° S 20:22:54 53° S visible
25 Sep -3.1 19:28:20 10° SW 19:31:24 37° SSE 19:33:19 19° E visible
25 Sep -1.6 21:04:30 10° W 21:06:01 25° W 21:06:01 25° W visible
26 Sep -3.9 20:12:34 10° WSW 20:15:53 90° SSW 20:16:18 66° ENE visible
27 Sep -3.8 19:20:43 10° WSW 19:23:59 65° SSE 19:26:29 16° ENE visible
27 Sep -1.9 20:57:17 10° W 20:59:10 30° WNW 20:59:10 30° WNW visible
28 Sep -3.6 20:05:17 10° W 20:08:35 67° N 20:09:17 49° NE visible
29 Sep -3.8 19:13:18 10° WSW 19:16:37 82° NNW 19:19:20 14° ENE visible
29 Sep -2.0 20:50:01 10° WNW 20:52:00 32° WNW 20:52:00 32° WNW visible
30 Sep -3.5 19:58:00 10° W 20:01:16 59° N 20:02:01 45° NE visible
30 Sep -0.3 21:34:37 10° WNW 21:34:41 11° WNW 21:34:41 11° WNW visible
